DAL1196 KATL-KEYW

Flight info

Callsign DAL1196
Flight time 1h 34m
Altitude 37000
Route BANNG3 LUCKK BULZI KRAKN1
Aircraft A319/M-SDE3FGHIRWY/LB1

Departure

Time 2026-05-03 20:45
Airport Hartsfield Jackson Atlanta International Airport (KATL)

Arrival

Time 2026-05-03 22:19
Airport Key West International Airport (KEYW)
Time Latitude Longitude Altitude Speed Heading
2026-05-03 20:30 33.63832 -84.44201 1036 ft 0 kts 269°
2026-05-03 20:32 33.63832 -84.44189 1036 ft 2 kts 269°
2026-05-03 20:32 33.63832 -84.44170 1035 ft 2 kts 269°
2026-05-03 20:33 33.63832 -84.44150 1035 ft 2 kts 269°
2026-05-03 20:33 33.63835 -84.44131 1035 ft 2 kts 232°
2026-05-03 20:33 33.63847 -84.44119 1035 ft 2 kts 183°
2026-05-03 20:33 33.63853 -84.44118 1036 ft 0 kts 180°
2026-05-03 20:35 33.63850 -84.44118 1036 ft 1 kts 180°
2026-05-03 20:36 33.63841 -84.44118 1036 ft 2 kts 180°
2026-05-03 20:36 33.63813 -84.44119 1036 ft 5 kts 180°
2026-05-03 20:36 33.63789 -84.44119 1036 ft 0 kts 180°
2026-05-03 20:36 33.63788 -84.44119 1036 ft 0 kts 180°
2026-05-03 20:37 33.63784 -84.44119 1036 ft 1 kts 180°
2026-05-03 20:37 33.63775 -84.44119 1036 ft 2 kts 180°
2026-05-03 20:37 33.63761 -84.44119 1036 ft 2 kts 180°
2026-05-03 20:37 33.63730 -84.44120 1036 ft 7 kts 180°
2026-05-03 20:38 33.63676 -84.44094 1036 ft 11 kts 129°
2026-05-03 20:38 33.63665 -84.43989 1036 ft 15 kts 90°
2026-05-03 20:38 33.63664 -84.43848 1036 ft 18 kts 90°
2026-05-03 20:38 33.63664 -84.43699 1036 ft 18 kts 90°
2026-05-03 20:39 33.63665 -84.43545 1035 ft 19 kts 90°
2026-05-03 20:39 33.63665 -84.43386 1035 ft 19 kts 90°
2026-05-03 20:39 33.63665 -84.43224 1035 ft 20 kts 89°
2026-05-03 20:39 33.63664 -84.43060 1035 ft 20 kts 91°
2026-05-03 20:40 33.63665 -84.42893 1035 ft 20 kts 89°
2026-05-03 20:40 33.63663 -84.42723 1036 ft 20 kts 93°
2026-05-03 20:40 33.63655 -84.42554 1036 ft 20 kts 90°
2026-05-03 20:40 33.63655 -84.42382 1036 ft 21 kts 90°
2026-05-03 20:41 33.63656 -84.42209 1036 ft 21 kts 90°
2026-05-03 20:41 33.63656 -84.42032 1036 ft 21 kts 90°
2026-05-03 20:41 33.63655 -84.41851 1035 ft 22 kts 90°
2026-05-03 20:41 33.63655 -84.41666 1035 ft 22 kts 90°
2026-05-03 20:42 33.63655 -84.41478 1035 ft 23 kts 90°
2026-05-03 20:42 33.63656 -84.41319 1035 ft 14 kts 90°
2026-05-03 20:42 33.63656 -84.41203 1035 ft 11 kts 90°
2026-05-03 20:42 33.63656 -84.41111 1035 ft 11 kts 90°
2026-05-03 20:43 33.63657 -84.41016 1035 ft 12 kts 90°
2026-05-03 20:43 33.63654 -84.40955 1035 ft 6 kts 101°
2026-05-03 20:43 33.63625 -84.40916 1035 ft 7 kts 159°
2026-05-03 20:43 33.63576 -84.40913 1035 ft 7 kts 179°
2026-05-03 20:44 33.63524 -84.40912 1036 ft 7 kts 179°
2026-05-03 20:44 33.63479 -84.40929 1036 ft 7 kts 235°
2026-05-03 20:44 33.63471 -84.41041 1035 ft 35 kts 269°
2026-05-03 20:44 33.63473 -84.41668 1034 ft 111 kts 270°
2026-05-03 20:45 33.63473 -84.42862 1060 ft 166 kts 270°
2026-05-03 20:45 33.63471 -84.44224 1797 ft 163 kts 271°
2026-05-03 20:45 33.63465 -84.45557 2581 ft 162 kts 272°
2026-05-03 20:45 33.63461 -84.46927 3272 ft 169 kts 272°
2026-05-03 20:46 33.63461 -84.48427 3690 ft 191 kts 271°
2026-05-03 20:46 33.63463 -84.50128 4103 ft 216 kts 271°
2026-05-03 20:46 33.63465 -84.52031 4652 ft 240 kts 271°
2026-05-03 20:46 33.63466 -84.54100 5407 ft 253 kts 271°
2026-05-03 20:47 33.63466 -84.56225 6412 ft 257 kts 271°
2026-05-03 20:47 33.63463 -84.58386 7351 ft 261 kts 271°
2026-05-03 20:47 33.63462 -84.60583 8316 ft 265 kts 271°
2026-05-03 20:47 33.63383 -84.62811 9272 ft 271 kts 262°
2026-05-03 20:48 33.62781 -84.64970 10213 ft 278 kts 244°
2026-05-03 20:48 33.61600 -84.66831 11070 ft 285 kts 225°
2026-05-03 20:48 33.59940 -84.68193 11891 ft 295 kts 209°
2026-05-03 20:48 33.57985 -84.69054 12694 ft 306 kts 196°
2026-05-03 20:49 33.55785 -84.69346 13035 ft 333 kts 180°
2026-05-03 20:49 33.53402 -84.68975 13357 ft 355 kts 173°
2026-05-03 20:49 33.50930 -84.68494 14026 ft 363 kts 173°
2026-05-03 20:49 33.48417 -84.68006 14721 ft 367 kts 173°
2026-05-03 20:50 33.45880 -84.67520 15442 ft 371 kts 174°
2026-05-03 20:50 33.43322 -84.67033 16152 ft 374 kts 173°
2026-05-03 20:50 33.40799 -84.66159 16852 ft 382 kts 160°
2026-05-03 20:50 33.38360 -84.64858 17572 ft 386 kts 159°
2026-05-03 20:51 33.35904 -84.63527 18283 ft 389 kts 159°
2026-05-03 20:51 33.33429 -84.62181 18910 ft 393 kts 159°
2026-05-03 20:51 33.30930 -84.60825 19531 ft 396 kts 159°
2026-05-03 20:51 33.28408 -84.59462 20144 ft 399 kts 159°
2026-05-03 20:52 33.25876 -84.58096 20851 ft 400 kts 159°
2026-05-03 20:52 33.23333 -84.56726 21501 ft 402 kts 159°
2026-05-03 20:52 33.20770 -84.55347 22121 ft 405 kts 159°
2026-05-03 20:52 33.18189 -84.53962 22738 ft 408 kts 159°
2026-05-03 20:53 33.15586 -84.52570 23323 ft 412 kts 160°
2026-05-03 20:53 33.12999 -84.51183 23857 ft 415 kts 160°
2026-05-03 20:53 33.10322 -84.49747 24328 ft 418 kts 160°
2026-05-03 20:53 33.07698 -84.48340 24790 ft 421 kts 160°
2026-05-03 20:54 33.05889 -84.47372 25093 ft 423 kts 160°
2026-05-03 20:54 32.99605 -84.44012 26147 ft 428 kts 161°
2026-05-03 20:54 32.96822 -84.42815 26582 ft 424 kts 171°
2026-05-03 20:55 32.93941 -84.42174 27020 ft 419 kts 180°
2026-05-03 20:55 32.91037 -84.42035 27459 ft 418 kts 185°
2026-05-03 20:55 32.88121 -84.41984 27904 ft 420 kts 185°
2026-05-03 20:55 32.85192 -84.41926 28340 ft 422 kts 185°
2026-05-03 20:56 32.82244 -84.41867 28766 ft 425 kts 186°
2026-05-03 20:56 32.79282 -84.41809 29182 ft 427 kts 186°
2026-05-03 20:56 32.76306 -84.41751 29566 ft 429 kts 186°
2026-05-03 20:56 32.73316 -84.41693 29996 ft 430 kts 186°
2026-05-03 20:57 32.70321 -84.41632 30380 ft 432 kts 186°
2026-05-03 20:57 32.67311 -84.41566 30718 ft 433 kts 187°
2026-05-03 20:57 32.64291 -84.41501 31061 ft 435 kts 187°
2026-05-03 20:57 32.61265 -84.41435 31395 ft 436 kts 187°
2026-05-03 20:58 32.59254 -84.41392 31611 ft 437 kts 187°
2026-05-03 20:58 32.56221 -84.41331 32028 ft 435 kts 187°
2026-05-03 20:58 32.53200 -84.41271 32510 ft 433 kts 187°
2026-05-03 20:58 32.50198 -84.41210 33001 ft 430 kts 187°
2026-05-03 20:59 32.47216 -84.41149 33476 ft 427 kts 188°
2026-05-03 20:59 32.44260 -84.41089 34033 ft 423 kts 188°
2026-05-03 20:59 32.41329 -84.41027 34495 ft 420 kts 188°
2026-05-03 20:59 32.38415 -84.40968 34900 ft 418 kts 188°
2026-05-03 21:00 32.35513 -84.40914 35266 ft 417 kts 188°
2026-05-03 21:00 32.33591 -84.40880 35501 ft 416 kts 189°
2026-05-03 21:00 32.29717 -84.40741 35951 ft 421 kts 184°
2026-05-03 21:00 32.26794 -84.40269 36265 ft 425 kts 182°
2026-05-03 21:01 32.23870 -84.39748 36574 ft 425 kts 181°
2026-05-03 21:01 32.20951 -84.39221 36850 ft 424 kts 182°
2026-05-03 21:01 32.18078 -84.38706 37093 ft 423 kts 182°
2026-05-03 21:01 32.15130 -84.38182 37143 ft 422 kts 182°
2026-05-03 21:02 32.09343 -84.37168 37115 ft 420 kts 182°
2026-05-03 21:02 32.03596 -84.36169 37121 ft 420 kts 182°
2026-05-03 21:03 31.97812 -84.35165 37123 ft 420 kts 182°
2026-05-03 21:03 31.92031 -84.34163 37110 ft 420 kts 183°
2026-05-03 21:04 31.86256 -84.33150 37139 ft 419 kts 183°
2026-05-03 21:04 31.80485 -84.32145 37156 ft 419 kts 183°
2026-05-03 21:05 31.74720 -84.31148 37166 ft 419 kts 183°
2026-05-03 21:05 31.68958 -84.30144 37168 ft 419 kts 183°
2026-05-03 21:06 31.63201 -84.29143 37130 ft 418 kts 183°
2026-05-03 21:06 31.57447 -84.28143 37140 ft 418 kts 183°
2026-05-03 21:07 31.51704 -84.27153 37151 ft 417 kts 183°
2026-05-03 21:07 31.45968 -84.26165 37154 ft 416 kts 183°
2026-05-03 21:08 31.40237 -84.25174 37159 ft 416 kts 183°
2026-05-03 21:08 31.34511 -84.24188 37123 ft 416 kts 184°
2026-05-03 21:09 31.28791 -84.23203 37141 ft 415 kts 184°
2026-05-03 21:09 31.23075 -84.22220 37149 ft 415 kts 184°
2026-05-03 21:10 31.17362 -84.21236 37153 ft 415 kts 184°
2026-05-03 21:10 31.11649 -84.20257 37154 ft 415 kts 184°
2026-05-03 21:11 31.05940 -84.19286 37138 ft 414 kts 184°
2026-05-03 21:11 31.00236 -84.18312 37152 ft 414 kts 184°
2026-05-03 21:12 30.94533 -84.17335 37160 ft 414 kts 184°
2026-05-03 21:12 30.88831 -84.16357 37162 ft 414 kts 184°
2026-05-03 21:13 30.83166 -84.15394 37164 ft 414 kts 184°
2026-05-03 21:13 30.77465 -84.14425 37135 ft 414 kts 184°
2026-05-03 21:14 30.71771 -84.13453 37150 ft 414 kts 184°
2026-05-03 21:14 30.66076 -84.12484 37156 ft 413 kts 184°
2026-05-03 21:15 30.60384 -84.11520 37151 ft 413 kts 184°
2026-05-03 21:15 30.54690 -84.10554 37152 ft 413 kts 184°
2026-05-03 21:16 30.48998 -84.09591 37151 ft 413 kts 184°
2026-05-03 21:16 30.43305 -84.08633 37150 ft 413 kts 184°
2026-05-03 21:17 30.38534 -84.07688 37149 ft 424 kts 177°
2026-05-03 21:17 30.34816 -84.05958 37144 ft 447 kts 163°
2026-05-03 21:17 30.32104 -84.04154 37144 ft 450 kts 163°
2026-05-03 21:18 30.26682 -84.00533 37143 ft 450 kts 163°
2026-05-03 21:18 30.21252 -83.96927 37116 ft 450 kts 163°
2026-05-03 21:19 30.15821 -83.93330 37119 ft 450 kts 163°
2026-05-03 21:19 30.10383 -83.89744 37112 ft 450 kts 163°
2026-05-03 21:20 30.04949 -83.86153 37127 ft 450 kts 163°
2026-05-03 21:20 29.99521 -83.82567 37130 ft 449 kts 163°
2026-05-03 21:21 29.94093 -83.78992 37093 ft 449 kts 164°
2026-05-03 21:21 29.88663 -83.75421 37105 ft 450 kts 164°
2026-05-03 21:22 29.83267 -83.71869 37112 ft 450 kts 164°
2026-05-03 21:22 29.77835 -83.68300 37115 ft 450 kts 164°
2026-05-03 21:23 29.72396 -83.64745 37113 ft 450 kts 164°
2026-05-03 21:23 29.66955 -83.61181 37050 ft 450 kts 164°
2026-05-03 21:24 29.61513 -83.57620 37093 ft 451 kts 164°
2026-05-03 21:24 29.56060 -83.54054 37105 ft 451 kts 164°
2026-05-03 21:25 29.50607 -83.50500 37103 ft 451 kts 164°
2026-05-03 21:25 29.45155 -83.46947 37112 ft 451 kts 164°
2026-05-03 21:26 29.39703 -83.43404 37108 ft 450 kts 164°
2026-05-03 21:26 29.34253 -83.39862 37071 ft 450 kts 165°
2026-05-03 21:27 29.28802 -83.36325 37085 ft 450 kts 165°
2026-05-03 21:27 29.23270 -83.33217 37098 ft 433 kts 173°
2026-05-03 21:28 29.17672 -83.30793 37100 ft 433 kts 173°
2026-05-03 21:28 29.12000 -83.28349 37098 ft 433 kts 173°
2026-05-03 21:29 29.06367 -83.25911 37053 ft 433 kts 173°
2026-05-03 21:29 29.00722 -83.23488 37078 ft 434 kts 173°
2026-05-03 21:30 28.95113 -83.21074 37087 ft 434 kts 173°
2026-05-03 21:30 28.89465 -83.18636 37093 ft 434 kts 173°
2026-05-03 21:31 28.83817 -83.16209 37094 ft 434 kts 173°
2026-05-03 21:31 28.78170 -83.13788 37031 ft 433 kts 173°
2026-05-03 21:32 28.72524 -83.11372 37044 ft 434 kts 173°
2026-05-03 21:32 28.66873 -83.08950 37059 ft 434 kts 173°
2026-05-03 21:33 28.61218 -83.06523 37073 ft 434 kts 173°
2026-05-03 21:33 28.55563 -83.04105 37077 ft 434 kts 173°
2026-05-03 21:34 28.49904 -83.01695 37080 ft 434 kts 174°
2026-05-03 21:34 28.44281 -82.99305 37059 ft 435 kts 173°
2026-05-03 21:35 28.38604 -82.96886 37072 ft 436 kts 173°
2026-05-03 21:35 28.32925 -82.94471 37074 ft 436 kts 173°
2026-05-03 21:36 28.30077 -82.93387 37075 ft 425 kts 179°
2026-05-03 21:36 28.27222 -82.92775 37078 ft 413 kts 185°
2026-05-03 21:36 28.21533 -82.91866 37074 ft 413 kts 185°
2026-05-03 21:37 28.15842 -82.90962 37046 ft 414 kts 185°
2026-05-03 21:37 28.10122 -82.90044 37058 ft 415 kts 185°
2026-05-03 21:38 28.04396 -82.89121 37066 ft 416 kts 185°
2026-05-03 21:38 27.98666 -82.88199 37071 ft 416 kts 185°
2026-05-03 21:39 27.92931 -82.87280 37076 ft 416 kts 185°
2026-05-03 21:39 27.87195 -82.86357 37035 ft 417 kts 185°
2026-05-03 21:40 27.81449 -82.85440 37045 ft 417 kts 185°
2026-05-03 21:40 27.75691 -82.84525 37047 ft 418 kts 185°
2026-05-03 21:41 27.69916 -82.83488 37057 ft 422 kts 183°
2026-05-03 21:41 27.64130 -82.82338 37064 ft 422 kts 182°
2026-05-03 21:42 27.58347 -82.81196 37072 ft 422 kts 183°
2026-05-03 21:42 27.52563 -82.80092 37074 ft 421 kts 183°
2026-05-03 21:43 27.46822 -82.79012 37079 ft 421 kts 183°
2026-05-03 21:43 27.41041 -82.77915 37054 ft 421 kts 183°
2026-05-03 21:44 27.35263 -82.76817 37067 ft 421 kts 183°
2026-05-03 21:44 27.29481 -82.75733 37078 ft 421 kts 183°
2026-05-03 21:45 27.23703 -82.74644 37030 ft 421 kts 183°
2026-05-03 21:45 27.17917 -82.73546 37034 ft 422 kts 182°
2026-05-03 21:46 27.12127 -82.72446 37037 ft 423 kts 182°
2026-05-03 21:46 27.06324 -82.71353 37045 ft 423 kts 183°
2026-05-03 21:47 27.00517 -82.70257 37054 ft 423 kts 182°
2026-05-03 21:47 26.95689 -82.69106 37015 ft 438 kts 173°
2026-05-03 21:48 26.92847 -82.67723 37019 ft 455 kts 163°
2026-05-03 21:48 26.90165 -82.65719 37017 ft 471 kts 154°
2026-05-03 21:48 26.84993 -82.61186 37029 ft 473 kts 154°
2026-05-03 21:49 26.79812 -82.56648 37031 ft 473 kts 154°
2026-05-03 21:49 26.74622 -82.52122 37040 ft 473 kts 154°
2026-05-03 21:50 26.69431 -82.47607 37043 ft 473 kts 154°
2026-05-03 21:50 26.64233 -82.43094 37031 ft 473 kts 154°
2026-05-03 21:51 26.59024 -82.38573 37018 ft 474 kts 153°
2026-05-03 21:51 26.53816 -82.34056 37043 ft 473 kts 154°
2026-05-03 21:52 26.48615 -82.29562 37048 ft 472 kts 154°
2026-05-03 21:52 26.43420 -82.25066 37051 ft 472 kts 153°
2026-05-03 21:53 26.38269 -82.20607 37047 ft 472 kts 154°
2026-05-03 21:53 26.33079 -82.16122 36998 ft 472 kts 153°
2026-05-03 21:54 26.27884 -82.11646 37006 ft 472 kts 153°
2026-05-03 21:54 26.22682 -82.07178 37010 ft 472 kts 153°
2026-05-03 21:55 26.17490 -82.02712 37022 ft 472 kts 153°
2026-05-03 21:55 26.12288 -81.98244 37012 ft 473 kts 153°
2026-05-03 21:56 26.07071 -81.93776 37014 ft 473 kts 153°
2026-05-03 21:56 26.01855 -81.89308 36994 ft 474 kts 153°
2026-05-03 21:57 25.96631 -81.84840 37009 ft 474 kts 153°
2026-05-03 21:57 25.91407 -81.80367 37018 ft 474 kts 153°
2026-05-03 21:58 25.86028 -81.76277 37021 ft 465 kts 159°
2026-05-03 21:58 25.80523 -81.72496 36996 ft 465 kts 159°
2026-05-03 21:59 25.77762 -81.70597 36119 ft 471 kts 159°
2026-05-03 21:59 25.74953 -81.68674 34879 ft 477 kts 159°
2026-05-03 21:59 25.72111 -81.66726 33398 ft 483 kts 158°
2026-05-03 21:59 25.69230 -81.64752 31799 ft 490 kts 156°
2026-05-03 22:00 25.66326 -81.62757 30578 ft 491 kts 156°
2026-05-03 22:00 25.63429 -81.60762 29397 ft 488 kts 156°
2026-05-03 22:00 25.60568 -81.58788 28221 ft 480 kts 155°
2026-05-03 22:00 25.57757 -81.56853 27106 ft 471 kts 155°
2026-05-03 22:01 25.54994 -81.54958 26052 ft 462 kts 156°
2026-05-03 22:01 25.52146 -81.53521 25067 ft 439 kts 171°
2026-05-03 22:01 25.49222 -81.52931 24109 ft 417 kts 184°
2026-05-03 22:01 25.46392 -81.53112 23070 ft 400 kts 197°
2026-05-03 22:02 25.43817 -81.53948 22009 ft 386 kts 208°
2026-05-03 22:02 25.41361 -81.55101 20950 ft 382 kts 208°
2026-05-03 22:02 25.38926 -81.56236 19953 ft 378 kts 207°
2026-05-03 22:02 25.36506 -81.57357 19025 ft 376 kts 207°
2026-05-03 22:03 25.34102 -81.58466 18091 ft 373 kts 207°
2026-05-03 22:03 25.31714 -81.59565 17079 ft 370 kts 207°
2026-05-03 22:03 25.29350 -81.60653 16128 ft 366 kts 206°
2026-05-03 22:03 25.27011 -81.61729 15184 ft 362 kts 206°
2026-05-03 22:04 25.24696 -81.62795 14268 ft 359 kts 206°
2026-05-03 22:04 25.22403 -81.63855 13337 ft 357 kts 206°
2026-05-03 22:04 25.20116 -81.64913 12744 ft 354 kts 206°
2026-05-03 22:04 25.17861 -81.65957 12213 ft 349 kts 206°
2026-05-03 22:05 25.15633 -81.66986 11667 ft 345 kts 206°
2026-05-03 22:05 25.13434 -81.68001 11128 ft 341 kts 206°
2026-05-03 22:05 25.11290 -81.68988 10635 ft 336 kts 206°
2026-05-03 22:05 25.09182 -81.69954 10484 ft 318 kts 205°
2026-05-03 22:06 25.07192 -81.70865 10362 ft 294 kts 206°
2026-05-03 22:06 25.05360 -81.71705 10117 ft 278 kts 206°
2026-05-03 22:06 25.03594 -81.72518 9876 ft 269 kts 206°
2026-05-03 22:06 25.01886 -81.73308 10002 ft 272 kts 206°
2026-05-03 22:07 25.00119 -81.74129 9942 ft 274 kts 206°
2026-05-03 22:07 24.98389 -81.74930 9602 ft 272 kts 206°
2026-05-03 22:07 24.96656 -81.75727 9317 ft 269 kts 206°
2026-05-03 22:07 24.94929 -81.76518 9038 ft 268 kts 206°
2026-05-03 22:08 24.93216 -81.77303 8763 ft 266 kts 206°
2026-05-03 22:08 24.91512 -81.78084 8495 ft 264 kts 206°
2026-05-03 22:08 24.89817 -81.78863 8220 ft 263 kts 206°
2026-05-03 22:08 24.88146 -81.79664 7948 ft 260 kts 211°
2026-05-03 22:09 24.86621 -81.80715 7681 ft 258 kts 216°
2026-05-03 22:09 24.85118 -81.81787 7418 ft 257 kts 215°
2026-05-03 22:09 24.83622 -81.82850 7154 ft 256 kts 215°
2026-05-03 22:10 24.80640 -81.84961 6629 ft 254 kts 215°
2026-05-03 22:10 24.79158 -81.86007 6368 ft 252 kts 215°
2026-05-03 22:10 24.77681 -81.87050 6090 ft 253 kts 214°
2026-05-03 22:10 24.76202 -81.88094 5829 ft 252 kts 214°
2026-05-03 22:11 24.74734 -81.89132 5592 ft 248 kts 214°
2026-05-03 22:11 24.73317 -81.90131 5471 ft 236 kts 215°
2026-05-03 22:11 24.71973 -81.91077 5327 ft 222 kts 215°
2026-05-03 22:11 24.70697 -81.91978 4974 ft 216 kts 215°
2026-05-03 22:12 24.69458 -81.92854 4739 ft 205 kts 215°
2026-05-03 22:12 24.68312 -81.93662 4637 ft 187 kts 215°
2026-05-03 22:12 24.67257 -81.94404 4445 ft 174 kts 215°
2026-05-03 22:12 24.66244 -81.95119 4334 ft 174 kts 215°
2026-05-03 22:13 24.65200 -81.95859 4247 ft 182 kts 215°
2026-05-03 22:13 24.64109 -81.96531 4157 ft 184 kts 205°
2026-05-03 22:13 24.62861 -81.96862 4019 ft 187 kts 189°
2026-05-03 22:13 24.61555 -81.96865 3819 ft 188 kts 183°
2026-05-03 22:14 24.60249 -81.96844 3625 ft 187 kts 183°
2026-05-03 22:14 24.58947 -81.96827 3406 ft 186 kts 182°
2026-05-03 22:14 24.57655 -81.96810 3080 ft 186 kts 182°
2026-05-03 22:14 24.56396 -81.96484 2756 ft 191 kts 152°
2026-05-03 22:15 24.55545 -81.95373 2448 ft 195 kts 113°
2026-05-03 22:15 24.55472 -81.93899 2154 ft 196 kts 81°
2026-05-03 22:15 24.55618 -81.92415 1928 ft 195 kts 88°
2026-05-03 22:15 24.55619 -81.90928 1790 ft 195 kts 91°
2026-05-03 22:16 24.55594 -81.89460 1584 ft 190 kts 91°
2026-05-03 22:16 24.55575 -81.88006 1506 ft 190 kts 90°
2026-05-03 22:16 24.55565 -81.86621 1510 ft 167 kts 90°
2026-05-03 22:16 24.55562 -81.85441 1500 ft 146 kts 89°
2026-05-03 22:17 24.55563 -81.84355 1421 ft 140 kts 89°
2026-05-03 22:17 24.55565 -81.83304 1218 ft 136 kts 89°
2026-05-03 22:17 24.55568 -81.82275 1041 ft 134 kts 89°
2026-05-03 22:17 24.55572 -81.81263 866 ft 132 kts 89°
2026-05-03 22:18 24.55579 -81.80256 701 ft 131 kts 87°
2026-05-03 22:18 24.55587 -81.79261 528 ft 128 kts 85°
2026-05-03 22:18 24.55590 -81.78280 332 ft 129 kts 86°
2026-05-03 22:18 24.55590 -81.77300 125 ft 126 kts 83°
2026-05-03 22:19 24.55615 -81.76369 10 ft 117 kts 90°
2026-05-03 22:19 24.55615 -81.75671 15 ft 51 kts 90°
2026-05-03 22:19 24.55618 -81.75411 16 ft 31 kts 89°
2026-05-03 22:19 24.55593 -81.75258 15 ft 16 kts 152°
2026-05-03 22:20 24.55529 -81.75296 17 ft 10 kts 272°
2026-05-03 22:20 24.55533 -81.75360 17 ft 7 kts 274°
2026-05-03 22:20 24.55520 -81.75382 18 ft 1 kts 202°
2026-05-03 22:20 24.55495 -81.75386 15 ft 3 kts 210°
2026-05-03 22:21 24.55478 -81.75412 14 ft 6 kts 227°
2026-05-03 22:21 24.55471 -81.75420 14 ft 0 kts 227°